This demonstration page uses our WeatherBlox Daily Observations layout. Learn more.

41.55636, -103.73856

Hourly Observations for April 30, 2015

Temp ( °F °C ) Dew Point ( °F °C ) Humidity (%) Winds ( mph kmh ) Pressure ( in mb ) Visibility ( mi km ) Precip ( " mm )
12:53 am 00:53 Clear 50 10 43 6 76 76 ESE 9 15 29.85 1011 10 16.09344 0 0
1:53 am 01:53 Clear 48 9 39 4 71 71 E 10 17 29.85 1011 10 16.09344 0 0
2:53 am 02:53 Clear 48 9 39 4 71 71 ESE 13 20 29.85 1011 10 16.09344 0 0
3:53 am 03:53 Clear 46 8 39 4 76 76 ESE 8 13 29.88 1012 10 16.09344 0 0
4:53 am 04:53 Clear 45 7 N/A N/A E 9 15 29.85 1011 10 16.09344 0 0
5:53 am 05:53 Sunny 43 6 N/A N/A undefined N/A 29.91 1013 10 16.09344 0 0
6:53 am 06:53 Sunny 46 8 N/A N/A Calm 29.88 1012 10 16.09344 0 0
7:53 am 07:53 Sunny 48 9 43 6 82 82 E 3 6 29.91 1013 10 16.09344 0 0
8:53 am 08:53 Sunny 55 13 45 7 67 67 W 7 11 29.85 1011 10 16.09344 0 0
9:53 am 09:53 Sunny 63 17 46 8 56 56 W 13 20 29.8 1009 10 16.09344 0 0
10:53 am 10:53 Sunny 68 20 48 9 49 49 W 13 20 29.74 1007 10 16.09344 0 0
11:53 am 11:53 Sunny 75 24 48 9 39 39 NNW 10 17 29.68 1005 10 16.09344 0 0
12:53 pm 12:53 Sunny 77 25 48 9 36 36 NNW 15 24 29.68 1005 10 16.09344 0 0
1:53 pm 13:53 Sunny 77 25 48 9 36 36 N 13 20 29.68 1005 10 16.09344 0 0
2:53 pm 14:53 Sunny 75 24 48 9 39 39 NNW 16 26 29.68 1005 10 16.09344 0 0
3:53 pm 15:53 Mostly Sunny 75 24 48 9 39 39 N 17 28 29.68 1005 10 16.09344 0 0
4:53 pm 16:53 Partly Cloudy 73 23 46 8 38 38 NNE 21 33 29.74 1007 10 16.09344 0 0
5:53 pm 17:53 Mostly Sunny 70 21 46 8 43 43 NNW 16 26 29.8 1009 10 16.09344 0 0
6:53 pm 18:53 Partly Cloudy 66 19 46 8 49 49 N 10 17 29.83 1010 10 16.09344 0 0
7:53 pm 19:53 Clear 63 17 46 8 56 56 N 10 17 29.88 1012 10 16.09344 0 0
8:53 pm 20:53 Clear 59 15 43 6 55 55 N 20 31 29.97 1015 10 16.09344 0 0
9:53 pm 21:53 Cloudy with Light Rain 54 12 46 8 77 77 NE 14 22 30.03 1017 10 16.09344 0.001 0.001
10:00 pm 22:00 Cloudy with Light Rain 54 12 46 8 77 77 ENE 8 13 30.03 1017 10 16.09344 0 0
10:53 pm 22:53 Cloudy with Light Rain 54 12 46 8 77 77 W 9 15 30.06 1018 10 16.09344 0.01 0.254
11:53 pm 23:53 Mostly Clear 52 11 48 9 88 88 Calm 30.06 1018 10 16.09344 0.001 0.001

Powered by AerisWeather